Tracking 33723 objects as of 10-Apr-2026
HD Live streaming from Space Station
objects crossing your sky now

DELTA 1 DEB

Track DELTA 1 DEB now!
10-day predictions


NORAD ID: 7088
Int'l Code: 1973-086CG
Perigee: 1,134.3 km
Apogee: 1,527.2 km
Inclination: 102.4 °
Period: 112.1 minutes
Semi major axis: 7701 km
RCS: 0.0368 m2 (small)
Launch date: November 6, 1973
Source: United States (US)
Launch site: AIR FORCE WESTERN TEST RANGE (AFWTR)

Note: This is SATELLITE DEBRIS
Your satellite tracking list
Your tracking list is empty




NASA's NSSDC Master Catalog

Two Line Element Set (TLE):
1 07088U 73086CG  26100.26412685  .00000165  00000-0  79054-3 0  9990
2 07088 102.4042  22.1713 0255052 238.6138 277.4684 12.84456365443827
Source of the keplerian elements: AFSPC